TimeAKST,TemperatureF,Dew PointF,Humidity,Sea Level PressureIn,VisibilityMPH,Wind Direction,Wind SpeedMPH,Gust SpeedMPH,PrecipitationIn,Events,Conditions,WindDirDegrees,DateUTC
12:16 AM,26.6,24.8,93,29.48,9.0,Calm,Calm,-,N/A,,Mostly Cloudy,0,2012-12-05 09:16:00
12:36 AM,26.6,24.8,93,29.49,10.0,Calm,Calm,-,N/A,,Overcast,0,2012-12-05 09:36:00
12:56 AM,26.6,24.8,93,29.49,10.0,Calm,Calm,-,N/A,,Overcast,0,2012-12-05 09:56:00
1:16 AM,26.6,24.8,93,29.50,10.0,Calm,Calm,-,N/A,,Overcast,0,2012-12-05 10:16:00
1:36 AM,28.4,24.8,86,29.51,5.0,SW,3.5,-,N/A,,Overcast,230,2012-12-05 10:36:00
1:56 AM,28.4,24.8,86,29.52,3.0,Calm,Calm,-,N/A,,Overcast,0,2012-12-05 10:56:00
2:16 AM,28.4,24.8,86,29.52,10.0,Calm,Calm,-,N/A,,Overcast,0,2012-12-05 11:16:00
2:36 AM,28.4,24.8,86,29.53,3.0,SW,4.6,-,N/A,,Overcast,230,2012-12-05 11:36:00
2:56 AM,28.4,24.8,86,29.54,2.5,WSW,3.5,-,N/A,,Overcast,240,2012-12-05 11:56:00
3:16 AM,28.4,24.8,86,29.54,1.5,West,4.6,-,N/A,,Overcast,270,2012-12-05 12:16:00
3:36 AM,26.6,24.8,93,29.55,8.0,WSW,5.8,-,N/A,,Mostly Cloudy,240,2012-12-05 12:36:00
3:56 AM,28.4,24.8,86,29.55,10.0,WSW,5.8,-,N/A,,Overcast,250,2012-12-05 12:56:00
5:56 AM,28.4,24.8,86,29.59,5.0,Calm,Calm,-,N/A,,Overcast,0,2012-12-05 14:56:00
6:16 AM,28.4,24.8,86,29.59,5.0,Calm,Calm,-,N/A,,Overcast,0,2012-12-05 15:16:00
6:36 AM,28.4,24.8,86,29.59,5.0,WSW,3.5,-,N/A,,Overcast,250,2012-12-05 15:36:00
6:56 AM,28.4,24.8,86,29.60,5.0,Calm,Calm,-,N/A,,Overcast,0,2012-12-05 15:56:00
7:16 AM,26.6,23.0,86,29.60,5.0,Calm,Calm,-,N/A,,Overcast,0,2012-12-05 16:16:00
7:36 AM,26.6,24.8,93,29.61,5.0,North,3.5,-,N/A,,Overcast,360,2012-12-05 16:36:00
7:56 AM,28.4,24.8,86,29.61,10.0,West,5.8,-,N/A,,Mostly Cloudy,270,2012-12-05 16:56:00
8:16 AM,28.4,24.8,86,29.62,10.0,West,4.6,-,N/A,,Mostly Cloudy,260,2012-12-05 17:16:00
8:36 AM,30.2,24.8,80,29.63,10.0,West,4.6,-,N/A,,Mostly Cloudy,280,2012-12-05 17:36:00
8:56 AM,30.2,24.8,80,29.63,10.0,WNW,3.5,-,N/A,,Overcast,300,2012-12-05 17:56:00
9:16 AM,30.2,24.8,80,29.64,10.0,West,4.6,-,N/A,,Overcast,280,2012-12-05 18:16:00
9:36 AM,28.4,24.8,86,29.65,10.0,West,5.8,-,N/A,,Overcast,270,2012-12-05 18:36:00
9:56 AM,28.4,24.8,86,29.65,10.0,Calm,Calm,-,N/A,,Mostly Cloudy,0,2012-12-05 18:56:00
10:16 AM,26.6,23.0,86,29.66,10.0,Calm,Calm,-,N/A,,Mostly Cloudy,0,2012-12-05 19:16:00
10:36 AM,28.4,24.8,86,29.66,10.0,Calm,Calm,-,N/A,,Mostly Cloudy,0,2012-12-05 19:36:00
10:56 AM,30.2,24.8,80,29.67,10.0,Calm,Calm,-,N/A,,Mostly Cloudy,0,2012-12-05 19:56:00
11:16 AM,30.2,26.6,86,29.67,10.0,SSW,3.5,-,N/A,,Mostly Cloudy,200,2012-12-05 20:16:00
11:36 AM,30.2,23.0,75,29.67,10.0,SSW,6.9,-,N/A,,Mostly Cloudy,200,2012-12-05 20:36:00
11:56 AM,32.0,23.0,69,29.67,10.0,Calm,Calm,-,N/A,,Overcast,0,2012-12-05 20:56:00
12:16 PM,32.0,24.8,75,29.67,10.0,Calm,Calm,-,N/A,,Overcast,0,2012-12-05 21:16:00
12:36 PM,32.0,23.0,69,29.67,10.0,Calm,Calm,-,N/A,,Overcast,0,2012-12-05 21:36:00
12:56 PM,32.0,24.8,75,29.67,2.5,NW,3.5,-,N/A,,Overcast,310,2012-12-05 21:56:00
1:16 PM,32.0,24.8,75,29.67,10.0,Calm,Calm,-,N/A,,Overcast,0,2012-12-05 22:16:00
1:36 PM,32.0,24.8,75,29.67,2.0,Calm,Calm,-,N/A,,Overcast,0,2012-12-05 22:36:00
1:56 PM,30.2,28.4,93,29.67,1.5,WSW,3.5,-,N/A,,Overcast,250,2012-12-05 22:56:00
2:16 PM,30.2,26.6,86,29.67,1.5,Calm,Calm,-,N/A,,Overcast,0,2012-12-05 23:16:00
2:36 PM,32.0,26.6,80,29.67,3.0,WNW,4.6,-,N/A,,Overcast,300,2012-12-05 23:36:00
2:56 PM,30.2,26.6,86,29.68,2.0,West,3.5,-,N/A,,Overcast,260,2012-12-05 23:56:00
3:16 PM,30.2,26.6,86,29.68,2.0,Calm,Calm,-,N/A,,Overcast,0,2012-12-06 00:16:00
3:36 PM,30.2,24.8,80,29.68,2.0,SW,3.5,-,N/A,,Overcast,230,2012-12-06 00:36:00
3:56 PM,30.2,26.6,86,29.69,2.0,SW,6.9,-,N/A,,Overcast,220,2012-12-06 00:56:00
4:16 PM,30.2,28.4,93,29.69,1.0,SSW,3.5,-,N/A,,Overcast,210,2012-12-06 01:16:00
4:36 PM,28.4,26.6,93,29.70,1.0,West,8.1,-,N/A,,Overcast,280,2012-12-06 01:36:00
4:57 PM,32.0,26.6,80,29.69,1.0,NNE,9.2,-,N/A,Snow,Light Snow,20,2012-12-06 01:57:00
5:50 PM,32.0,24.8,75,29.70,5.0,Calm,Calm,-,N/A,Snow,Light Snow,0,2012-12-06 02:50:00
6:48 PM,30.2,26.6,86,29.71,2.0,South,3.5,-,N/A,Snow,Light Snow,170,2012-12-06 03:48:00
7:36 PM,28.4,26.6,93,29.74,2.0,West,4.6,-,N/A,,Overcast,270,2012-12-06 04:36:00
7:56 PM,28.4,26.6,93,29.75,1.5,West,3.5,-,N/A,,Overcast,260,2012-12-06 04:56:00
8:16 PM,28.4,26.6,93,29.75,1.5,Calm,Calm,-,N/A,,Overcast,0,2012-12-06 05:16:00
8:36 PM,30.2,28.4,93,29.76,1.5,Calm,Calm,-,N/A,,Overcast,0,2012-12-06 05:36:00
8:56 PM,28.4,26.6,93,29.77,5.0,Calm,Calm,-,N/A,,Overcast,0,2012-12-06 05:56:00
9:16 PM,28.4,26.6,93,29.78,10.0,Calm,Calm,-,N/A,,Scattered Clouds,0,2012-12-06 06:16:00
9:36 PM,26.6,24.8,93,29.78,10.0,Calm,Calm,-,N/A,,Scattered Clouds,0,2012-12-06 06:36:00
9:56 PM,26.6,23.0,86,29.78,10.0,SW,5.8,-,N/A,,Mostly Cloudy,220,2012-12-06 06:56:00
10:16 PM,26.6,26.6,100,29.79,10.0,West,3.5,-,N/A,,Mostly Cloudy,280,2012-12-06 07:16:00
10:36 PM,26.6,24.8,93,29.79,10.0,Calm,Calm,-,N/A,,Mostly Cloudy,0,2012-12-06 07:36:00
10:56 PM,26.6,24.8,93,29.79,10.0,SW,3.5,-,N/A,,Mostly Cloudy,220,2012-12-06 07:56:00
11:16 PM,26.6,24.8,93,29.80,9.0,Calm,Calm,-,N/A,,Overcast,0,2012-12-06 08:16:00
11:36 PM,28.4,26.6,93,29.80,1.5,West,3.5,-,N/A,,Overcast,280,2012-12-06 08:36:00
11:56 PM,28.4,26.6,93,29.80,3.0,West,3.5,-,N/A,,Overcast,280,2012-12-06 08:56:00